Overview Statistics Trail Chart Weather Telemetry Raw packets
 

This is the latest recevied weather packets stored in our database for station/object WA1NHP. If no packets are shown the sender has not sent any weather packets the latest 10 day(s).

<< 9 10 11 12 13 14 15 >>
Time Temp. Humidity Pressure Rain* Wind** Luminosity Snow
1788472444 22.78° C 89% 1023.9 hPa 0 mm - 26 W/m² -
1788471844 23.33° C 88% 1023.9 hPa 0 mm - 44 W/m² -
1788471244 23.33° C 88% 1023.9 hPa 0 mm - 42 W/m² -
1788470644 23.33° C 87% 1023.9 hPa 0 mm - 51 W/m² -
1788470043 23.33° C 87% 1023.9 hPa 0 mm - 98 W/m² -
1788469444 23.33° C 87% 1023.9 hPa 0 mm - 51 W/m² -
1788468844 23.33° C 86% 1023.9 hPa 0 mm - 67 W/m² -
1788468244 23.33° C 87% 1023.9 hPa 0 mm - 88 W/m² -
1788467643 23.33° C 86% 1023.9 hPa 0 mm - 153 W/m² -
1788467072 23.33° C 84% 1023.9 hPa 0 mm - 81 W/m² -
1788466444 23.89° C 87% 1023.9 hPa 0 mm - 499 W/m² -
1788465844 23.33° C 88% 1023.9 hPa 0 mm - 570 W/m² -
1788465244 22.78° C 89% 1023.9 hPa 0 mm - 148 W/m² -
1788464644 23.33° C 88% 1023.9 hPa 0 mm - 202 W/m² -
1788464043 22.78° C 89% 1023.9 hPa 0 mm - 791 W/m² -
1788463444 22.78° C 88% 1023.9 hPa 0 mm - 137 W/m² -
1788462844 22.78° C 87% 1023.9 hPa 0 mm - 128 W/m² -
1788462244 22.78° C 87% 1023.9 hPa 0 mm - 197 W/m² -
1788461644 22.78° C 89% 1023.9 hPa 0 mm - 181 W/m² -
1788461043 22.78° C 88% 1023.9 hPa 0 mm - 105 W/m² -
1788460444 22.78° C 88% 1023.9 hPa 0 mm - 128 W/m² -
1788459844 23.33° C 85% 1023.9 hPa 0 mm - 146 W/m² -
1788459243 23.33° C 85% 1023.9 hPa 0 mm - 294 W/m² -
1788458643 23.33° C 83% 1023.9 hPa 0 mm - 225 W/m² -
1788458044 23.89° C 86% 1023.9 hPa 0 mm - 861 W/m² -

* Rain latest hour (hover to see other rain measurements)
** Current wind speed in m/s (hover to see current wind gust speed)